Regional Weather Roundup
Issued by NWS

Home | Current Version | Previous Version | Graphics & Text | Print | Product List | Glossary On
Versions: 1 2 3 4 5 6 7 8 9 10 11 12 13 14 15 16 17 18 19 20 21 22 23 24 25 26 27 28 29 30 31 32 33 34 35 36 37 38 39 40 41 42 43 44 45 46 47 48 49 50
000
ASUS45 KTFX 240910
RWRMT
MONTANA REGIONAL WEATHER ROUNDUP
NATIONAL WEATHER SERVICE GREAT FALLS MT
300 AM MDT FRI MAR 24 2017

NOTE: "FAIR" INDICATES FEW OR NO CLOUDS BELOW 12000 FEET WITH NO
SIGNIFICANT WEATHER AND/OR OBSTRUCTIONS TO VISIBILITY.

MTZ001>007-043-241000-
WEST OF THE DIVIDE

CITY           SKY/WX    TMP DP  RH WIND       PRES   REMARKS
KALISPELL      CLEAR     26  24  92 CALM      30.05S
MISSOULA       CLEAR     30  24  78 N5        30.08R
BUTTE          CLEAR     25  20  81 CALM      30.05R
MULLAN PASS    CLOUDY    25  22  88 S10       29.96S WCI  15
ANACONDA         N/A     27  19  74 SW7       30.05S WCI  19
DEER LODGE       N/A     21  19  93 CALM      30.07F
EUREKA           N/A     28  21  74 CALM      30.05F
HAMILTON         N/A     32  25  74 S8        30.06S WCI  25
RONAN            N/A     29  25  85 CALM      30.08R
$$

MTZ008-052>055-241000-
SOUTHWEST MONTANA

CITY           SKY/WX    TMP DP  RH WIND       PRES   REMARKS
BOZEMAN        CLEAR     29  24  82 S6        30.06R WCI  23
DILLON         CLEAR     30  20  66 S12       30.05R WCI  20
W YELLOWSTONE  CLOUDY    19  18  93 CALM      30.10R
ENNIS          CLEAR     30  21  69 S5        30.10R
THREE FORKS      N/A     27   8  44 CALM      30.04R
$$

MTZ009-010-012-014-046-048-049-054-241000-
EAST SLOPES AND CENTRAL MONTANA

CITY           SKY/WX    TMP DP  RH WIND       PRES   REMARKS
CUT BANK       CLEAR     27  20  75 W8        29.98R WCI  19
GREAT FALLS    CLEAR     33  18  53 CALM      30.01R
MALMSTROM AFB  CLEAR     28  20  74 S8        30.02R WCI  19
HELENA         CLEAR     31  23  72 CALM      30.04S
AUGUSTA          N/A     30  17  58 S3        29.99S
BOWMANS CRNR     N/A     30  19  64 S12       29.97F WCI  21
CHOTEAU          N/A     30  19  64 MISG      30.01S
CONRAD           N/A     22  21  96 S5        30.01S
FAIRFIELD        N/A     30  17  59 CALM      29.98F
POWER            N/A     24  17  75 SW5       29.99F
RAYNESFORD       N/A     27  19  72 E6        30.02S WCI  20
$$

MTZ011-013-016-021-045-047-050-051-241000-
NORTH CENTRAL MONTANA

CITY           SKY/WX    TMP DP  RH WIND       PRES   REMARKS
HAVRE          CLEAR     30  24  78 SW10      30.01R WCI  21
LEWISTOWN      CLEAR     26  19  74 SE6       30.03R WCI  19
N BAR RANCH      N/A     34  19  55 VRB5      30.04S
CHINOOK          N/A     30  25  80 CALM      30.01R
DENTON           N/A     30  20  66 S9        30.00R WCI  22
FORT BENTON      N/A     32  19  59 MISG      30.04R
GEYSER           N/A     31  20  63 SW10      30.01S WCI  23
GRASS RANGE      N/A     32  22  67 W13       29.99R WCI  22
STANFORD         N/A     28  19  68 CALM      30.01S
WINIFRED         N/A     33  22  64 SW6       30.02R WCI  28
$$

MTZ017>020-022>027-061-062-241000-
NORTHEAST MONTANA

CITY           SKY/WX    TMP DP  RH WIND       PRES   REMARKS
GLASGOW        CLEAR     31  27  85 W6        29.96R WCI  25
JORDAN           N/A     31  27  85 W8        29.98R WCI  23
SIDNEY         CLEAR     33  31  92 NE3       30.01R
WOLF POINT     CLEAR     31  29  92 CALM      29.96S
MALTA          CLEAR     28  27  93 SW8       29.99R WCI  20
PLENTYWOOD       N/A     34  30  86 CALM      29.97S
POPLAR           N/A     34  30  86 NE6       29.98R WCI  29
SCOBEY           N/A     24  15  68 CALM      29.95S
$$

MTZ028>42-056>058-241000-
SOUTHCENTRAL AND SOUTHEAST MONTANA

CITY           SKY/WX    TMP DP  RH WIND       PRES   REMARKS
BAKER          CLOUDY    37  34  89 W6        30.00R
BILLINGS       PTCLDY    38  34  85 SW6       30.02R
LIVINGSTON     CLEAR     28  21  75 NW8       30.04R WCI  20
MILES CITY     CLEAR     40  30  67 SW5       30.01R
BIG TIMBER     CLEAR     32  23  69 W10       30.06S WCI  24
EKALAKA          N/A     37  33  85 SE3       29.98R
FORSYTH          N/A     41  37  87 SW3       30.01R
HARLOWTON        N/A     29  21  73 W12       30.02S WCI  19
LAUREL           N/A     34  23  64 SW1       30.00F
$$

REGIONAL REPORTS...DAKOTAS

CITY           SKY/WX    TMP DP  RH WIND       PRES   REMARKS
WILLISTON      CLEAR     28  26  92 N5        30.02R
MINOT          CLEAR     27  24  89 NW5       30.02R
DICKINSON      PTCLDY    31  30  96 NE8       29.97R WCI  23
BEACH            N/A    N/A N/A N/A MISG        N/A
TIOGA            N/A     27  27 100 E5        30.03R FOG
WATFORD CITY     N/A     30  30 100 CALM      30.01R
BISMARCK       CLOUDY    31  29  92 NW3       30.00R FOG
GRAND FORKS    CLOUDY    33  32  96 N12       29.97R WCI  24
FARGO          CLOUDY    34  34 100 N5        29.92F FOG
BUFFALO SD       N/A     37  34  89 W8        29.91S WCI  31
RAPID CITY     CLOUDY    42  37  82 N8        29.98S
$$

REGIONAL REPORTS...WYOMING/IDAHO/WASHINGTON

CITY           SKY/WX    TMP DP  RH WIND       PRES   REMARKS
GILLETTE       CLEAR     35  33  92 CALM      30.02R
SHERIDAN       CLEAR     33  28  81 N3        30.04R
BUFFALO WY     CLOUDY    40  28  62 S5        30.05R
CODY           CLEAR     38  31  76 SW7       30.06R
YELLOWSTONE LA   N/A     19  17  92 CALM      30.10S
IDAHO FALLS    CLEAR     38  24  57 S15       30.12R WCI  29
SALMON         CLEAR     27  19  74 CALM      30.06R
BOISE          MOCLDY    44  25  47 SE12      30.04S
SPOKANE        CLOUDY    38  28  67 E7        29.94F
$$

REGIONAL REPORTS...ALBERTA

CITY           SKY/WX    TMP DP  RH WIND       PRES   REMARKS
EDMONTON       CLEAR     28  23  80 S6        29.95F WCI  22
CALGARY        MOCLDY    28  23  80 S5        29.94S
LETHBRIDGE     CLEAR     25  21  86 SW7       29.98R WCI  17
MEDICINE HAT   CLEAR     30  27  86 CALM      29.97R
WATERTON GATE    N/A     36  19  51 SW14G21     N/A  WCI  27
CARDSTON         N/A     25  18  74 SE2         N/A
MILK RIVER       N/A     27  21  80 NW6         N/A  WCI  20
$$

REGIONAL REPORTS...SASKATCHEWAN

CITY           SKY/WX    TMP DP  RH WIND       PRES   REMARKS
SWIFT CURRENT  CLOUDY    28  27  93 E10       29.97R WCI  19
REGINA         CLEAR     27  23  86 E7        30.03R WCI  19
SASKATOON      MOCLDY    27  21  80 E6        30.09S WCI  20
VAL MARIE        N/A     27  25  93 NE5         N/A
ASSINIBOIA       N/A     12  10  92 S3          N/A
$$



USA.gov is the U.S. government's official web portal to all federal, state and local government web resources and services.